• In Hungary
  • List of Countries
  • For 7 days
  • Water Temperature
  • Satellite Maps
  • Weather Map
  • News
  • Weather Widgets
  • user-avatar
    Login

    Hourly Weather Zernovo

    Today, 20 September, Thursday

    Time Temperature Precipitation Wind Pressure Humidity
    00:00 +16°C° 0 mm 3 mps 745 mmHg 94%
    01:00 +16°C° 0 mm 3 mps 745 mmHg 95%
    02:00 +15°C° 0 mm 2 mps 745 mmHg 97%
    03:00 +15°C° 0 mm 2 mps 745 mmHg 97%
    04:00 +14°C° 0 mm 3 mps 745 mmHg 97%
    05:00 +14°C° 0 mm 3 mps 746 mmHg 97%
    06:00 +16°C° 0 mm 3 mps 746 mmHg 93%
    07:00 +17°C° 0 mm 4 mps 746 mmHg 89%
    08:00 +18°C° 0 mm 4 mps 746 mmHg 84%
    09:00 +19°C° 0 mm 4 mps 746 mmHg 78%
    10:00 +20°C° 0 mm 4 mps 747 mmHg 71%
    11:00 +21°C° 0 mm 4 mps 747 mmHg 64%
    12:00 +21°C° 0 mm 4 mps 747 mmHg 62%
    13:00 +22°C° 0 mm 4 mps 747 mmHg 60%
    14:00 +23°C° 0 mm 4 mps 747 mmHg 57%
    15:00 +22°C° 0 mm 3 mps 747 mmHg 63%
    16:00 +20°C° 0 mm 2 mps 748 mmHg 69%
    17:00 +19°C° 0 mm 2 mps 748 mmHg 74%
    18:00 +18°C° 0 mm 2 mps 748 mmHg 79%
    19:00 +17°C° 0 mm 2 mps 748 mmHg 83%
    20:00 +16°C° 0 mm 2 mps 748 mmHg 87%
    21:00 +15°C° 0 mm 2 mps 748 mmHg 89%
    22:00 +15°C° 0 mm 2 mps 748 mmHg 90%
    23:00 +14°C° 0 mm 2 mps 748 mmHg 92%

    Tomorrow, 21 September, Friday

    Time Temperature Precipitation Wind Pressure Humidity
    00:00 +14°C° 0 mm 2 mps 749 mmHg 92%
    01:00 +14°C° 0 mm 2 mps 749 mmHg 93%
    02:00 +14°C° 0 mm 2 mps 749 mmHg 94%
    03:00 +13°C° 0 mm 2 mps 749 mmHg 94%
    04:00 +13°C° 0 mm 2 mps 749 mmHg 94%
    05:00 +13°C° 0 mm 2 mps 749 mmHg 94%
    06:00 +14°C° 0 mm 2 mps 750 mmHg 89%
    07:00 +16°C° 0 mm 2 mps 750 mmHg 84%
    08:00 +17°C° 0 mm 2 mps 750 mmHg 79%
    09:00 +19°C° 0 mm 2 mps 750 mmHg 74%
    10:00 +21°C° 0 mm 2 mps 750 mmHg 69%
    11:00 +22°C° 0 mm 3 mps 750 mmHg 64%
    12:00 +24°C° 0 mm 3 mps 750 mmHg 63%
    13:00 +25°C° 0 mm 3 mps 750 mmHg 61%
    14:00 +25°C° 0 mm 3 mps 750 mmHg 60%
    15:00 +24°C° 0 mm 2 mps 750 mmHg 66%
    16:00 +23°C° 0 mm 2 mps 749 mmHg 72%
    17:00 +21°C° 0 mm 2 mps 749 mmHg 78%
    18:00 +19°C° 0 mm 2 mps 749 mmHg 81%
    19:00 +18°C° 0 mm 2 mps 749 mmHg 84%
    20:00 +17°C° 0 mm 2 mps 749 mmHg 88%
    21:00 +17°C° 0 mm 2 mps 749 mmHg 88%
    22:00 +16°C° 0 mm 2 mps 749 mmHg 89%
    23:00 +16°C° 0 mm 2 mps 749 mmHg 90%

    Day after tomorrow, 22 September, Saturday

    Time Temperature Precipitation Wind Pressure Humidity
    00:00 +16°C° 0 mm 3 mps 749 mmHg 91%
    01:00 +16°C° 0 mm 3 mps 749 mmHg 92%
    02:00 +16°C° 0 mm 3 mps 748 mmHg 92%
    03:00 +16°C° 0 mm 3 mps 748 mmHg 93%
    04:00 +16°C° 0 mm 3 mps 748 mmHg 93%
    05:00 +16°C° 0 mm 3 mps 748 mmHg 94%
    06:00 +17°C° 0 mm 4 mps 747 mmHg 89%
    07:00 +18°C° 0 mm 4 mps 747 mmHg 83%
    08:00 +19°C° 0 mm 5 mps 747 mmHg 78%
    09:00 +20°C° 0 mm 5 mps 746 mmHg 71%
    10:00 +22°C° 0 mm 6 mps 746 mmHg 65%
    11:00 +23°C° 0 mm 6 mps 745 mmHg 58%
    12:00 +24°C° 0 mm 6 mps 745 mmHg 56%
    13:00 +24°C° 0 mm 6 mps 744 mmHg 54%
    14:00 +24°C° 0 mm 6 mps 744 mmHg 52%
    15:00 +23°C° 0.1 mm 5 mps 744 mmHg 57%
    16:00 +22°C° 0.1 mm 4 mps 744 mmHg 61%
    17:00 +21°C° 0.1 mm 4 mps 743 mmHg 66%
    18:00 +19°C° 0.8 mm 4 mps 744 mmHg 73%
    19:00 +17°C° 0.8 mm 3 mps 744 mmHg 79%
    20:00 +14°C° 0.8 mm 3 mps 744 mmHg 85%
    21:00 +14°C° 0.3 mm 3 mps 744 mmHg 86%
    22:00 +13°C° 0.3 mm 3 mps 744 mmHg 86%
    23:00 +13°C° 0.3 mm 2 mps 744 mmHg 86%

    23 September, Sunday

    Time Temperature Precipitation Wind Pressure Humidity
    00:00 +13°C° 0.1 mm 2 mps 744 mmHg 87%
    01:00 +12°C° 0.1 mm 2 mps 744 mmHg 88%
    02:00 +12°C° 0.1 mm 2 mps 744 mmHg 89%
    03:00 +10°C° 0.9 mm 2 mps 743 mmHg 90%
    04:00 +10°C° 0.9 mm 2 mps 743 mmHg 92%
    05:00 +10°C° 0.9 mm 2 mps 743 mmHg 94%
    06:00 +10°C° 1.4 mm 2 mps 743 mmHg 94%
    07:00 +9°C° 1.4 mm 2 mps 743 mmHg 94%
    08:00 +9°C° 1.4 mm 2 mps 743 mmHg 94%
    09:00 +10°C° 0.8 mm 2 mps 742 mmHg 93%
    10:00 +10°C° 0.8 mm 2 mps 742 mmHg 92%
    11:00 +10°C° 0.8 mm 3 mps 742 mmHg 90%
    12:00 +11°C° 0.2 mm 3 mps 742 mmHg 87%
    13:00 +12°C° 0.2 mm 3 mps 742 mmHg 84%
    14:00 +12°C° 0.2 mm 3 mps 742 mmHg 81%
    15:00 +12°C° 0.2 mm 3 mps 742 mmHg 82%
    16:00 +11°C° 0.2 mm 3 mps 742 mmHg 83%
    17:00 +11°C° 0.2 mm 3 mps 741 mmHg 84%
    18:00 +10°C° 0.1 mm 3 mps 742 mmHg 86%
    19:00 +10°C° 0.1 mm 3 mps 742 mmHg 88%
    20:00 +9°C° 0.1 mm 3 mps 742 mmHg 90%
    21:00 +8°C° 0 mm 3 mps 742 mmHg 91%
    22:00 +8°C° 0 mm 3 mps 742 mmHg 92%
    23:00 +7°C° 0 mm 3 mps 742 mmHg 93%

    24 September, Monday

    Time Temperature Precipitation Wind Pressure Humidity
    00:00 +7°C° 0 mm 3 mps 742 mmHg 94%
    01:00 +7°C° 0 mm 3 mps 742 mmHg 94%
    02:00 +7°C° 0 mm 3 mps 742 mmHg 95%
    03:00 +7°C° 0 mm 3 mps 742 mmHg 95%
    04:00 +7°C° 0 mm 3 mps 742 mmHg 96%
    05:00 +5°C° 0 mm 3 mps 742 mmHg 96%
    06:00 +7°C° 0 mm 3 mps 742 mmHg 93%
    07:00 +8°C° 0 mm 3 mps 742 mmHg 90%
    08:00 +8°C° 0 mm 4 mps 742 mmHg 86%
    09:00 +10°C° 0.2 mm 4 mps 741 mmHg 83%
    10:00 +9°C° 0.2 mm 5 mps 740 mmHg 81%
    11:00 +10°C° 0.2 mm 5 mps 739 mmHg 78%
    12:00 +9°C° 1.3 mm 6 mps 738 mmHg 81%
    13:00 +9°C° 1.3 mm 6 mps 737 mmHg 85%
    14:00 +8°C° 1.3 mm 6 mps 736 mmHg 88%
    15:00 +8°C° 3.1 mm 6 mps 735 mmHg 90%
    16:00 +8°C° 3.1 mm 7 mps 733 mmHg 91%
    17:00 +8°C° 3.1 mm 7 mps 732 mmHg 92%
    18:00 +9°C° 2 mm 7 mps 730 mmHg 92%
    19:00 +10°C° 2 mm 7 mps 729 mmHg 92%
    20:00 +10°C° 2 mm 6 mps 728 mmHg 91%
    21:00 +10°C° 0.3 mm 6 mps 727 mmHg 89%
    22:00 +10°C° 0.3 mm 6 mps 726 mmHg 87%
    23:00 +9°C° 0.3 mm 6 mps 726 mmHg 85%

    25 September, Tuesday

    Time Temperature Precipitation Wind Pressure Humidity
    00:00 +9°C° 0.1 mm 6 mps 726 mmHg 86%
    01:00 +8°C° 0.1 mm 6 mps 726 mmHg 87%
    02:00 +8°C° 0.1 mm 6 mps 726 mmHg 88%
    03:00 +6°C° 0.3 mm 7 mps 727 mmHg 88%
    04:00 +6°C° 0.3 mm 7 mps 727 mmHg 87%
    05:00 +5°C° 0.3 mm 8 mps 728 mmHg 87%
    06:00 +5°C° 0.8 mm 8 mps 729 mmHg 86%
    07:00 +5°C° 0.8 mm 8 mps 730 mmHg 86%
    08:00 +5°C° 0.8 mm 9 mps 730 mmHg 86%
    09:00 +3°C° 1.1 mm 9 mps 732 mmHg 85%
    10:00 +3°C° 1.1 mm 9 mps 733 mmHg 84%
    11:00 +3°C° 1.1 mm 9 mps 735 mmHg 84%
    12:00 +4°C° 0.4 mm 8 mps 736 mmHg 81%
    13:00 +4°C° 0.4 mm 8 mps 738 mmHg 78%
    14:00 +5°C° 0.4 mm 7 mps 740 mmHg 75%
    15:00 +4°C° 0 mm 6 mps 741 mmHg 74%
    16:00 +5°C° 0 mm 5 mps 742 mmHg 73%
    17:00 +5°C° 0 mm 4 mps 743 mmHg 72%
    18:00 +5°C° 0 mm 4 mps 743 mmHg 73%
    19:00 +4°C° 0 mm 4 mps 744 mmHg 74%
    20:00 +3°C° 0 mm 4 mps 745 mmHg 75%
    21:00 +3°C° 0 mm 4 mps 745 mmHg 78%
    22:00 +3°C° 0 mm 3 mps 746 mmHg 81%
    23:00 +3°C° 0 mm 3 mps 747 mmHg 83%
    Show more